CZ-6A DEB, 63394

Orbit data source: Space-Track

CZ-6A DEB, 63394 is space debris in LEO originally from a launch on Tue, 06 Aug 2024 UTC launched from the Taiyaun Space Center, China (TSC). Debris objects in space refer to the collection of defunct objects orbiting the Earth. Examples of debris include non-operational satellites, rocket bodies, and fragments generated from explosions, collisions, or faulty payload assembly.

Loading next visibility...
Identifier
63394, 2024-140ADR
Orbit
LEO
Country
Flag of CNCN / PRC
Related business
Manufacturer
SAST
Mission
Spacecraft
Bus & Motor
Unknown
Mass
Unknown
Launch date (UTC)
2024-08-06 (2 years ago)
Launch vehicle
Unknown
Launch site
Taiyaun Space Center, China (TSC)
Object type
Payload
Rocket body
Debris
Shape & HBR
Unknown shape, 0.1 m
Radar Cross Section
Small (<0.1 m²)

Expand to show TLE details & history
Last TLE update: 12 hours ago

TLE from 12 hours ago
0 CZ-6A DEB
1 63394U 24140ADR 26118.40328786  .00001736  00000-0  86120-3 0  9999
2 63394  88.9416 277.0366 0075110  12.1712 348.1267 14.15322498 83632
Epoch: 2026-04-28T09:40Z
TLE epoch observation values (Epoch: 2026-04-28T09:40:44.071Z)
Latitude
-0.00001°
Longitude
-84.52613°
Altitude
791.203 km
Speed
7.485 km/s
True Right ascension
18h 28m 08s
True Declination
0° 00' 00"
Sunlit
Object was in full shadow at epoch
Visualization orbit readout
Latitude
Unknown
Longitude
Unknown
Altitude
Unknown
Speed
Unknown
Apparent Right ascension
Unknown
Apparent Declination
Unknown
Sunlit
N/A
Visualization observer readout
Local Sidereal Time
05:08:07
Azimuth
Unknown
Elevation
Unknown
Doppler factor
Unknown
Orbital elements
Apogee altitude
892.375 km
Perigee altitude
783.972 km
Semi-major axis
7,216.31 km
Eccentricity
0.00751
Inclination
88.9416°
RAAN
277.0366°
Arg. of periapsis
12.1712°
True anomaly
347.94797°
Mean anomaly
348.1267°
Eccentric anomaly
348.0375°
Mean motion
3.54055 °/min
Orbital period
101.68 mins
BSTAR
0.0008612
Loading maneuver chart data...
Computing Atmospheric mass density...

Documentation

Showing up to 5 results
|